Location: Wheeling
(40.0640°N, 80.7210°W)
Time: 20:01:43
(UTC-05:00)

KAITUO 1B - Pass Details

Date: 24 October 2021
Orbit: 489 x 506 km, 97.4° (Epoch: 07 December)

Event Time Altitude Azimuth Distance (km) Brightness Sun altitude
Rises 19:01:44 0° 166° (SSE) 2,552 ? -6.8°
Reaches altitude 10° 19:03:48 10° 166° (SSE) 1,674 ? -7.1°
Maximum altitude 19:07:24 87° 78° (ENE) 496 ? -7.8°
Drops below altitude 10° 19:11:02 10° 349° (N) 1,687 ? -8.5°
Sets 19:13:06 0° 349° (N) 2,574 ? -8.9°
